RH
54 50 49 50 51 53 53 52 49 45 43 46 51 51 48 42 36 33 33 34 35 34 33 31 30 30 31 31 30 29 28 27 27 29 35 33 23 22 24 25 25 24 21 18 17 17 17 18 18 19 19 18 18 18 18 19 20 21 22 23 24 25 24 23 23 22 21 22 24 29 38 43 49 50 42 36 36 43 61 81 90 93 95 92 87 84 86 87
65 60 55 53 53 55 57 58 57 54 49 45 46 50 53 50 44 38 34 34 35 36 36 36 36 35 35 34 33 32 30 29 29 32 34 28 21 23 26 26 27 26 24 21 19 18 17 18 20 20 20 20 19 19 18 19 19 21 23 24 25 25 23 22 22 22 21 21 23 27 35 42 50 52 45 40 38 43 60 78 85 88 90 89 87 87 89 87
67 69 66 61 57 56 56 57 59 59 58 52 47 46 50 54 52 46 40 36 34 36 38 39 39 40 41 39 37 36 34 32 33 35 32 25 22 27 29 28 28 27 26 25 22 20 18 18 19 20 21 21 20 20 19 19 20 21 23 24 25 24 23 22 21 21 20 21 21 25 31 38 48 54 52 46 40 45 58 70 79 86 87 86 87 88 88 85
62 67 71 72 69 64 61 59 59 61 62 61 55 49 47 50 54 53 49 43 38 35 37 40 41 41 42 42 42 40 37 36 36 36 31 25 26 31 31 29 28 28 26 26 26 24 21 19 19 20 21 21 21 20 20 20 20 21 23 25 24 23 22 22 21 20 20 20 21 23 27 33 43 53 57 52 45 50 62 68 73 81 83 84 87 87 86 83
63 63 66 71 74 74 72 68 64 63 65 66 63 58 52 48 51 55 55 51 45 40 36 38 41 42 42 42 43 41 38 38 38 37 32 27 28 31 31 29 29 29 27 28 28 26 24 21 19 19 20 20 21 21 21 21 20 21 23 23 22 23 22 22 21 20 20 20 20 22 24 30 39 52 60 56 51 57 66 69 71 77 80 83 85 85 84 81
66 65 66 67 71 75 77 76 74 70 69 70 69 66 59 53 49 52 57 58 53 47 42 38 38 41 42 41 41 41 39 39 40 39 34 29 29 31 29 28 30 29 29 30 29 28 27 25 22 20 19 19 20 21 21 21 20 21 22 22 21 22 22 22 21 20 20 20 20 20 22 27 36 49 56 55 56 62 68 70 73 76 79 82 83 82 80 78
70 70 71 72 73 74 76 77 78 78 75 73 74 72 67 60 54 51 54 60 60 55 50 44 39 39 41 42 42 40 40 40 42 41 35 30 30 32 29 27 28 29 31 33 31 30 29 29 26 22 19 19 20 21 21 20 20 21 21 21 21 21 21 21 21 20 20 19 19 20 21 25 33 44 51 51 54 61 68 70 71 75 78 80 81 78 76 76
71 72 74 77 78 77 77 77 78 80 80 77 76 76 74 68 61 56 53 56 64 63 58 52 46 41 38 40 42 42 43 44 43 40 36 31 32 34 32 29 29 29 31 34 35 33 32 31 30 26 23 20 19 19 19 20 21 21 21 21 21 21 20 20 20 20 20 20 19 20 20 23 29 38 44 45 49 60 67 69 72 75 76 77 78 76 76 77
81 75 72 74 79 82 82 81 80 80 81 80 78 77 78 75 68 63 57 55 60 67 66 58 52 47 41 39 40 42 47 47 41 39 38 34 35 38 37 33 31 30 30 32 34 36 37 35 32 30 26 22 20 19 19 20 21 21 21 21 21 20 20 20 21 21 20 20 20 21 20 22 26 33 38 40 49 63 68 71 74 74 74 75 76 78 78 78
94 89 79 71 72 78 84 86 85 83 82 82 81 78 77 78 75 69 64 59 56 64 70 67 59 52 47 43 40 42 46 45 40 40 40 37 38 40 40 37 34 32 31 30 31 35 38 36 33 30 28 26 23 20 19 20 21 21 20 20 21 21 21 22 22 22 21 21 21 21 22 24 26 31 33 35 47 61 66 69 72 73 74 75 77 79 79 78
78 88 89 81 71 69 76 85 88 88 86 85 84 82 78 77 78 76 72 66 59 59 66 73 68 58 53 49 46 47 46 41 39 41 41 39 38 40 42 42 39 36 34 32 31 32 33 34 34 33 31 30 28 24 21 21 21 21 20 20 21 21 21 23 23 22 21 21 22 22 23 26 29 31 30 31 43 56 62 66 70 73 74 76 79 80 79 78
52 64 75 80 76 68 68 74 82 87 89 88 86 85 82 79 78 79 78 74 68 60 61 70 75 68 59 54 57 57 46 37 36 40 42 39 39 41 45 47 45 42 39 36 34 31 30 30 33 35 33 32 30 27 24 22 21 20 20 20 20 20 21 22 22 21 21 21 22 23 26 28 32 32 28 32 45 54 60 65 70 74 76 77 79 80 80 77
49 49 55 63 69 70 67 66 70 79 86 89 89 86 85 84 81 80 81 80 77 68 61 64 74 77 67 62 67 61 46 38 36 38 42 42 41 42 46 51 50 47 46 43 38 33 30 28 30 33 34 33 31 30 29 27 23 21 20 20 20 20 21 22 21 21 21 22 23 23 27 31 36 38 37 42 53 61 64 67 70 73 76 78 80 79 78 75
54 50 50 51 56 62 65 64 64 70 80 85 88 88 86 86 86 83 81 82 82 77 68 62 70 79 79 76 71 59 49 44 41 41 42 42 44 44 44 49 52 51 51 49 42 35 31 29 28 29 32 34 33 32 34 31 26 23 21 20 20 19 21 22 22 22 22 22 23 24 26 31 40 46 48 53 62 66 66 68 69 72 76 79 79 78 74 74
56 52 50 50 50 54 58 60 60 65 73 78 82 85 86 86 87 87 84 82 82 83 77 67 67 76 91 96 75 58 56 55 53 50 44 41 42 44 43 45 47 50 51 50 45 38 33 31 29 28 29 33 34 34 36 35 31 27 24 22 21 20 22 23 22 22 22 22 23 24 25 32 42 49 53 57 60 59 60 65 67 71 77 78 76 73 70 71
53 50 49 50 50 50 52 55 56 59 64 70 74 77 82 84 85 87 88 85 82 84 82 74 68 72 97 110 85 62 61 66 63 55 48 43 39 41 42 42 42 44 47 48 46 42 36 32 31 30 29 29 32 34 36 36 34 31 28 25 23 22 22 23 24 23 23 22 23 24 25 33 44 50 53 50 46 44 48 58 64 67 71 71 69 67 67 70
51 49 48 48 49 50 50 52 53 53 56 61 65 68 73 77 79 84 89 89 85 84 85 81 73 72 94 111 97 78 69 68 67 58 55 50 42 39 39 41 41 40 42 43 44 42 39 35 32 31 31 29 30 33 37 37 37 36 34 31 27 25 24 25 27 27 25 23 23 24 25 31 38 42 42 34 30 35 40 46 53 56 57 58 58 59 62 67
50 49 48 46 46 46 46 47 48 49 51 53 56 60 64 68 74 80 85 89 87 84 85 87 80 75 93 108 103 93 79 70 66 63 63 59 50 44 38 39 41 41 39 39 41 42 41 39 35 32 31 30 29 30 34 39 41 41 40 38 33 29 26 27 29 29 26 24 24 24 25 27 29 30 29 24 26 35 43 42 37 34 35 39 41 46 57 63
46 45 42 41 40 40 41 42 42 43 44 46 49 53 57 60 68 75 79 83 87 86 86 90 87 80 89 99 100 100 91 79 70 65 66 64 57 51 44 39 38 40 39 37 38 41 43 44 40 34 31 32 32 32 35 38 41 43 43 41 37 32 28 26 28 28 26 24 23 24 25 24 23 22 22 22 25 31 39 43 49 50 37 31 34 36 46 53
38 35 33 31 30 31 33 34 36 38 39 41 43 47 50 52 60 68 73 79 86 86 83 87 89 83 84 89 96 104 99 85 75 67 65 64 60 54 50 44 38 37 38 38 39 40 44 46 45 42 39 37 36 37 39 37 36 39 42 42 39 36 32 28 27 27 26 25 24 24 24 22 21 21 20 21 23 26 29 32 57 88 83 66 65 60 51 48
24 21 19 18 17 18 19 21 24 27 31 35 38 43 47 47 52 60 69 77 84 82 79 86 92 89 88 89 96 105 103 94 85 74 66 64 61 57 53 49 43 37 36 38 40 40 42 45 49 50 47 42 38 38 40 37 33 35 39 42 42 39 36 33 29 27 27 26 25 23 22 21 21 21 21 21 21 23 29 26 36 76 102 100 96 90 79 71
12 11 10 10 10 10 10 11 12 13 17 22 27 35 43 45 47 55 64 73 78 77 74 80 92 97 93 91 96 103 105 104 99 86 74 66 62 60 59 55 52 45 38 36 38 40 42 45 50 53 51 45 40 40 39 36 34 33 34 38 42 43 40 37 32 29 27 26 26 23 20 19 20 21 21 22 22 20 26 28 22 39 77 102 106 101 98 96
8 7 8 7 8 8 8 9 9 9 10 11 14 20 29 35 42 51 59 66 70 69 68 75 93 103 96 91 95 100 104 106 104 94 82 73 67 66 65 61 59 55 45 38 36 38 42 46 52 54 52 47 43 43 43 40 36 35 33 34 38 44 43 40 37 34 30 28 27 23 20 18 19 21 21 22 24 22 21 25 22 22 40 71 89 89 92 99
6 6 6 5 6 6 6 7 7 8 8 9 11 12 15 20 29 40 47 55 59 59 62 70 90 105 99 92 91 96 103 105 105 98 85 78 73 68 68 66 64 60 53 44 38 37 40 45 51 53 53 50 47 46 46 44 41 39 37 35 35 40 45 45 42 38 34 31 28 25 22 20 19 20 23 27 27 24 23 25 26 25 29 51 75 82 88 98
4 5 5 4 5 4 5 5 5 6 6 7 9 10 12 13 18 25 32 42 47 50 55 65 90 108 99 91 90 96 104 102 105 105 90 82 78 70 68 68 66 63 59 51 42 38 38 42 46 50 52 50 49 49 47 46 44 43 41 39 36 35 41 46 44 41 38 34 30 27 23 20 21 20 21 27 29 27 28 27 25 25 29 50 83 99 101 104
6 6 6 6 6 6 6 6 5 6 5 6 7 8 11 13 14 17 22 31 37 44 50 63 92 104 93 95 100 103 107 101 103 109 100 92 87 78 70 68 69 68 65 57 47 42 40 41 42 46 49 48 47 48 47 47 46 44 44 43 38 33 35 43 45 43 42 39 32 28 25 22 22 22 22 23 26 31 33 30 26 25 24 30 58 91 100 101
8 7 7 7 7 7 7 7 6 6 6 5 5 6 11 13 14 15 18 24 32 39 44 62 90 97 93 102 105 102 106 103 102 107 106 102 98 90 79 72 73 72 68 60 51 46 44 42 40 41 46 48 47 47 47 47 48 51 51 45 40 36 32 35 42 45 45 41 34 28 26 25 23 23 24 23 24 29 31 30 31 36 37 28 39 74 93 98
8 8 8 7 7 6 6 7 6 6 6 6 5 6 10 13 14 15 16 20 28 32 39 58 79 87 95 104 102 102 106 105 103 104 107 107 103 99 88 81 83 79 73 65 56 53 52 49 45 41 42 45 48 52 51 48 51 57 56 47 42 40 34 30 34 42 45 39 33 30 26 26 26 23 23 23 23 29 30 31 37 44 48 46 60 86 90 96
8 8 8 7 6 6 5 5 5 5 5 5 6 7 10 13 14 15 16 18 22 25 33 49 66 82 98 103 103 107 107 104 103 100 104 107 103 100 92 88 93 90 81 71 61 57 58 60 56 45 41 43 49 55 55 55 58 59 53 47 44 40 36 31 29 35 41 38 34 34 31 27 27 24 24 23 23 32 34 35 49 66 70 66 83 104 99 100
8 7 6 5 4 4 4 3 3 4 4 4 6 7 9 12 14 16 16 17 19 22 28 41 62 85 100 105 106 108 106 104 102 97 97 99 96 95 90 87 92 91 85 77 67 59 58 60 59 49 40 40 45 49 52 56 60 56 50 48 44 40 37 32 29 30 34 40 40 38 33 29 28 26 25 24 25 31 35 35 45 72 94 94 96 105 102 100
5 4 3 2 3 2 2 3 2 3 3 4 5 6 8 11 14 16 16 16 18 20 26 38 61 86 101 107 108 108 106 104 103 100 98 95 90 86 80 75 79 81 78 75 70 63 59 55 54 50 43 40 41 42 44 47 48 48 48 46 40 37 35 31 30 27 28 39 44 40 35 31 30 29 27 27 27 28 31 34 33 43 69 86 92 101 103 103
3 2 2 2 2 2 2 2 3 3 3 4 5 6 8 12 15 17 16 17 17 20 28 41 66 92 106 108 106 105 105 103 103 104 103 101 99 96 85 74 75 80 81 80 74 65 60 58 58 54 47 42 41 42 43 41 37 38 41 41 35 32 30 29 30 27 28 38 43 39 37 34 32 31 29 27 28 28 28 33 34 32 38 45 54 67 75 79
2 2 2 2 2 2 3 3 3 3 3 4 5 6 9 12 15 17 17 17 17 20 28 45 73 98 108 108 104 101 99 99 102 104 106 107 108 109 102 91 88 88 90 96 91 78 68 64 65 63 55 47 43 45 48 47 46 47 43 39 35 32 30 32 33 30 30 36 39 39 39 36 34 33 31 28 28 27 26 29 32 31 32 31 32 35 38 41
2 2 2 2 3 3 3 3 3 3 4 5 5 7 10 13 15 16 17 17 17 21 30 48 76 97 105 106 104 102 98 97 98 100 103 105 107 108 101 95 96 93 91 97 99 94 85 76 71 70 67 59 54 60 67 67 68 69 64 53 43 38 37 39 39 36 35 36 37 40 42 39 37 35 33 32 29 27 27 28 29 28 31 33 33 34 33 32
3 3 3 3 3 3 3 3 4 4 4 5 5 8 11 14 17 17 18 18 18 23 35 52 76 97 105 102 100 102 103 102 100 98 96 96 102 108 102 96 99 97 94 96 96 93 90 89 89 88 84 76 75 83 89 83 75 70 66 55 46 45 44 44 43 39 39 37 35 41 45 42 40 39 37 35 32 30 30 29 30 31 33 36 37 37 36 34
3 3 3 3 3 3 3 3 4 4 4 5 6 8 12 15 17 18 18 18 20 25 37 54 75 94 103 103 102 103 102 103 104 102 101 100 101 104 102 101 104 103 100 103 104 98 91 90 94 99 97 90 90 97 102 100 89 75 64 54 54 60 55 49 46 40 37 32 30 40 48 46 44 42 40 37 34 34 35 35 37 36 37 39 37 34 32 31
4 4 3 4 3 3 3 3 4 4 4 5 6 9 14 16 18 19 19 19 21 26 37 53 72 90 101 103 104 104 103 103 101 98 102 107 106 101 95 96 102 105 104 105 108 107 101 97 95 99 103 100 96 96 101 105 98 86 78 74 75 71 57 49 46 40 36 29 29 43 52 50 48 45 42 40 38 38 38 41 43 42 43 39 33 42 46 35
4 4 3 4 3 3 4 3 4 4 4 5 8 12 16 18 19 20 19 20 22 27 39 55 74 91 101 104 104 103 105 106 103 100 100 103 106 105 100 97 99 102 101 100 103 105 106 107 103 101 104 103 97 92 90 88 85 82 84 89 88 74 60 54 48 42 37 28 30 47 56 54 50 48 47 46 45 45 43 44 46 44 45 37 32 53 69 52
4 4 4 4 3 3 4 3 4 4 4 6 10 14 17 19 21 21 20 21 24 30 43 60 81 97 104 106 105 102 103 105 104 104 104 103 103 104 104 106 107 104 100 97 99 102 103 107 108 105 103 98 90 85 80 75 72 71 75 83 83 72 68 65 56 50 43 32 37 53 60 58 55 53 52 52 50 49 46 45 46 43 43 38 31 40 53 50
3 3 4 3 3 3 3 3 4 4 5 7 10 14 18 20 22 22 21 22 26 34 47 63 83 99 105 107 105 101 102 105 103 103 106 107 106 104 104 107 109 108 106 104 102 101 103 105 107 108 105 94 81 76 75 75 74 71 74 84 81 70 69 68 59 52 45 38 45 61 66 63 60 56 54 53 52 52 49 47 47 46 44 44 40 38 40 42
3 3 4 3 3 3 3 4 4 4 5 7 11 15 19 22 24 24 23 24 28 36 48 64 82 97 103 105 104 102 102 103 104 105 105 105 106 106 105 106 106 106 107 107 105 104 105 106 106 105 101 92 86 85 84 82 83 82 87 97 95 83 78 73 62 53 45 38 42 58 69 68 62 57 54 52 51 51 51 50 49 50 50 49 48 45 42 44
3 3 4 3 3 3 4 4 4 5 6 9 14 19 23 25 26 26 25 26 30 36 47 63 82 94 100 103 104 102 101 103 107 108 105 105 106 105 104 104 106 106 106 106 105 105 107 107 107 104 97 92 93 95 92 85 81 81 86 94 93 87 85 80 70 62 54 46 46 58 70 71 64 60 57 53 51 51 52 52 51 52 55 56 54 49 43 47
3 4 4 4 4 4 4 5 5 6 9 13 18 22 25 28 28 28 28 28 31 39 48 63 80 93 100 104 104 101 101 106 109 109 105 105 106 105 104 106 106 105 107 108 105 104 106 106 106 105 102 100 97 92 88 83 78 73 72 75 74 74 79 81 74 69 65 61 66 77 80 76 69 65 62 57 54 53 53 54 55 55 58 61 63 61 52 51
3 4 4 4 4 4 5 5 6 7 11 16 22 25 28 30 31 30 30 31 33 40 51 63 78 95 103 104 104 103 104 106 107 108 106 105 105 104 104 107 107 105 106 107 104 104 107 107 106 105 106 107 103 92 81 73 70 66 62 63 67 70 74 75 71 68 65 62 73 89 92 84 75 70 67 63 59 58 57 56 56 58 62 66 69 71 67 65
3 4 4 5 5 4 5 5 6 9 14 21 26 30 32 33 33 31 30 32 35 40 52 64 77 94 105 107 106 107 106 103 103 105 105 105 105 103 103 105 104 103 104 102 99 101 105 106 106 107 108 107 105 99 84 68 63 63 60 61 66 71 73 74 69 65 62 60 71 91 101 95 85 77 72 68 65 65 63 61 60 59 63 68 72 78 81 79
3 4 4 4 5 5 6 6 7 11 18 25 31 34 36 35 34 33 33 37 41 46 55 66 76 89 102 108 109 109 107 104 102 103 104 106 104 102 103 103 101 103 104 99 94 94 97 97 99 103 106 106 105 106 99 83 70 66 64 63 66 71 76 77 72 66 63 62 69 88 105 108 100 92 83 76 72 71 69 66 64 63 62 66 72 79 85 86
3 4 4 5 5 5 6 7 9 14 22 30 35 38 40 40 40 41 43 48 54 59 65 72 79 88 99 107 109 108 107 104 103 102 100 100 99 100 103 103 104 107 106 100 96 97 98 96 94 94 96 96 96 99 97 87 74 67 66 66 67 72 76 77 75 72 67 62 62 73 93 105 107 102 94 85 77 73 72 70 67 65 63 64 67 74 82 89
4 4 3 5 5 5 7 8 11 18 26 35 41 44 48 50 51 53 56 59 62 69 77 83 89 95 102 106 107 106 104 103 102 98 93 91 92 95 98 100 103 105 101 97 95 97 100 98 94 91 88 84 83 85 83 78 72 66 63 62 65 71 78 80 80 77 72 66 61 64 78 92 99 98 92 85 77 71 68 66 65 64 63 63 64 68 75 83
4 4 4 5 5 5 7 8 12 20 31 42 48 53 56 58 60 63 66 69 70 75 84 92 98 104 106 106 105 104 104 103 100 96 92 92 93 94 96 98 99 98 97 96 96 96 97 93 88 84 80 76 74 75 73 71 69 65 61 59 59 66 77 83 83 80 76 72 66 64 72 84 91 92 89 82 77 72 67 65 65 66 68 68 67 67 70 73
5 5 5 6 5 7 9 14 24 35 44 50 53 57 61 63 66 68 70 76 82 87 95 100 105 107 107 106 104 103 102 101 101 101 100 100 100 100 101 100 99 98 98 97 94 92 89 82 74 70 68 67 67 67 66 65 65 65 62 58 56 60 72 81 82 80 78 76 73 70 75 84 89 92 93 90 85 81 78 75 74 74 76 76 75 72 70 69
6 6 7 8 9 13 20 29 42 51 56 58 58 61 67 73 79 81 80 86 95 100 103 105 106 106 106 107 105 102 100 98 99 100 101 102 102 103 103 102 101 101 97 91 83 76 71 65 59 56 56 57 59 61 62 60 60 62 61 59 56 57 67 78 82 81 77 76 77 78 82 92 98 100 102 102 99 96 92 89 87 84 83 82 81 79 74 70
9 9 11 13 15 21 28 39 53 59 64 72 73 72 78 88 98 102 100 101 106 107 105 104 105 103 103 105 104 102 102 102 102 102 100 99 98 99 101 100 97 90 80 72 65 58 54 51 48 48 49 50 53 56 57 57 57 57 57 57 55 54 63 78 85 85 80 75 76 78 81 88 95 98 102 104 105 107 105 100 97 92 86 82 79 77 75 73
Wind_Speed
44 45 46 46 47 46 46 46 46 46 45 44 44 44 45 47 49 52 54 54 54 55 57 59 60 61 63 64 64 63 62 60 59 58 60 63 58 51 50 51 52 53 54 56 57 59 58 57 56 57 58 59 61 64 66 67 67 66 65 64 65 66 67 67 67 66 63 59 58 57 56 54 52 52 51 48 46 44 43 42 42 42 42 43 42 41 41 41
45 45 46 47 48 48 48 48 48 48 47 47 46 45 45 46 47 50 52 54 55 55 55 57 59 59 61 62 63 64 63 62 60 60 64 63 55 53 55 54 53 53 52 53 55 56 56 56 55 55 56 56 58 60 62 64 64 64 64 65 67 68 68 68 68 66 63 60 58 57 56 54 53 52 51 48 46 45 45 44 43 43 42 42 41 41 41 41
46 46 47 47 48 50 50 50 50 49 49 49 49 48 47 47 47 48 51 53 55 56 55 55 57 58 60 61 62 63 63 62 60 63 66 60 56 57 58 57 55 54 52 51 52 53 54 55 56 56 55 55 56 56 58 60 61 62 63 65 68 70 69 69 68 66 63 60 58 57 56 54 53 52 50 49 47 46 45 45 45 44 43 42 41 41 42 42
48 48 48 48 48 50 51 52 52 51 51 51 51 51 50 49 48 48 49 51 54 56 56 56 56 57 58 59 60 62 62 61 60 63 64 60 58 60 60 59 57 56 53 51 51 51 53 54 55 56 55 55 54 54 55 56 58 59 61 65 69 70 69 69 68 66 62 60 58 57 56 54 53 52 50 49 47 46 46 46 46 45 44 43 43 43 43 42
51 51 50 50 50 50 51 52 53 53 53 52 52 52 52 51 50 50 49 50 52 55 57 57 57 57 57 58 59 60 61 60 60 63 63 61 60 60 61 60 59 58 55 53 52 51 51 53 55 55 56 55 53 53 53 53 55 56 60 65 68 69 69 69 68 65 62 60 58 57 56 54 53 52 50 49 48 47 46 46 46 46 46 45 44 44 43 43
53 53 53 53 52 52 53 53 53 54 55 54 54 53 53 53 53 52 51 51 51 53 56 58 59 59 58 58 58 59 59 59 60 62 63 62 60 60 61 59 59 59 56 55 54 52 52 52 54 55 55 55 53 53 53 52 52 54 58 63 66 68 68 69 68 65 63 61 59 58 56 54 53 52 51 50 49 48 47 47 47 48 48 46 46 45 44 43
56 55 55 55 55 55 55 55 54 55 55 56 55 55 54 54 55 54 53 53 52 53 54 57 59 60 60 59 59 58 57 59 61 62 63 63 61 60 61 59 59 58 57 58 57 54 53 52 53 53 54 54 54 54 53 51 50 52 56 60 63 65 66 68 67 65 63 62 60 58 56 54 53 52 51 51 50 48 48 49 49 49 49 47 47 46 45 43
60 59 58 58 58 57 57 57 57 56 56 56 57 57 55 55 55 55 56 55 54 54 54 56 58 59 61 60 60 58 57 61 63 63 63 63 62 60 60 59 58 57 57 58 58 56 54 53 53 52 53 53 54 54 52 50 49 51 54 57 59 61 64 65 65 64 63 62 60 59 57 55 53 52 52 51 50 49 49 51 51 50 49 48 48 46 44 44
65 64 63 61 61 60 60 60 59 59 58 57 57 57 57 56 55 55 56 57 57 56 55 56 57 59 60 60 61 59 61 65 63 62 63 63 62 59 58 59 58 57 57 58 57 57 56 56 54 53 52 51 52 52 51 49 50 52 54 54 55 56 59 60 62 63 63 61 60 59 57 56 54 53 52 51 50 50 52 52 52 51 50 49 47 46 45 44
69 68 67 66 64 63 62 62 62 61 61 59 58 58 58 58 57 56 56 58 59 58 58 57 57 58 58 59 59 59 65 67 63 61 63 64 63 60 58 59 59 58 58 57 57 58 59 59 56 53 51 49 50 50 49 50 52 53 53 52 51 52 53 55 58 61 61 61 60 59 58 56 55 53 53 52 51 52 54 54 53 52 50 49 47 47 46 45
72 72 71 70 69 67 66 65 64 64 63 62 60 59 59 58 58 57 57 58 60 60 60 59 58 57 57 58 57 59 67 68 65 63 64 65 64 61 60 60 60 59 59 58 58 59 60 59 57 54 51 49 48 48 48 50 52 53 52 51 51 50 50 52 55 58 59 59 59 59 58 56 55 54 53 53 53 54 55 54 53 52 50 48 48 47 46 46
73 74 74 74 73 71 69 68 67 66 65 64 63 61 60 59 59 59 58 58 59 61 61 61 59 57 57 56 56 62 66 68 66 64 65 66 65 63 61 61 61 60 59 59 60 60 60 59 57 56 53 50 48 46 47 49 51 52 52 52 51 49 48 51 53 54 55 57 58 58 57 56 55 54 54 54 54 55 54 54 53 51 50 49 48 47 47 47
72 74 75 75 75 74 73 72 70 69 68 67 66 64 62 61 60 60 60 59 59 61 63 63 61 59 56 54 60 64 64 66 66 65 66 68 66 64 62 62 62 61 60 60 61 60 59 58 57 57 55 52 50 47 46 49 50 51 51 52 50 48 48 50 51 51 52 54 56 57 57 56 55 54 54 54 54 54 54 53 52 51 50 49 49 49 48 48
71 73 75 76 76 76 75 75 73 72 70 69 68 67 65 63 62 62 62 61 60 61 63 64 63 61 56 56 64 65 62 64 64 64 67 69 68 66 65 64 64 62 62 62 61 60 58 57 56 56 55 54 52 48 47 48 49 50 50 51 50 48 48 51 50 49 49 52 54 56 57 57 56 55 55 55 55 54 53 53 52 51 50 50 50 50 50 49
71 72 74 75 76 77 77 77 76 75 74 72 70 69 68 66 65 64 63 63 62 61 63 64 65 62 58 60 66 63 62 63 63 63 66 69 69 68 67 67 66 65 64 63 61 59 58 56 55 54 54 55 54 50 49 48 48 48 48 49 48 48 50 51 50 49 49 50 52 55 57 58 58 58 58 57 56 55 53 53 52 51 51 51 51 51 51 50
72 72 74 75 76 77 78 79 79 78 77 76 74 72 70 69 68 66 65 65 64 62 63 64 66 63 61 64 66 63 63 64 64 63 64 67 69 70 70 69 68 68 67 65 62 60 58 56 54 53 54 54 53 52 51 49 48 47 47 48 48 49 51 52 51 51 51 50 51 54 57 59 60 60 60 58 57 56 54 53 53 53 53 53 52 52 51 51
74 74 75 76 77 78 79 80 81 81 81 80 78 75 73 72 70 68 68 67 66 64 63 64 67 65 64 67 68 65 64 65 64 61 61 65 68 70 71 70 70 69 68 66 62 60 57 55 54 53 52 51 50 51 51 50 48 46 46 48 48 50 52 52 53 54 52 50 51 53 56 60 62 62 61 58 56 56 56 56 55 54 54 54 54 54 53 52
76 76 78 79 80 81 82 83 83 83 84 83 81 79 77 75 73 72 70 69 68 66 64 64 67 67 67 70 70 67 65 64 64 61 61 64 66 68 69 71 71 71 69 66 63 60 57 55 55 53 51 50 48 48 48 50 50 49 49 49 51 52 53 53 54 56 54 52 51 52 55 59 60 60 59 57 57 57 57 56 55 57 57 57 57 56 54 53
78 80 81 82 83 84 85 86 86 86 86 86 84 83 82 79 76 75 73 71 69 68 66 66 68 69 70 72 72 69 66 64 64 62 62 63 65 66 67 69 71 71 70 66 64 61 58 56 54 52 49 48 48 47 48 52 54 54 53 52 52 52 52 53 55 56 55 53 52 52 54 56 56 57 57 57 58 59 57 51 50 54 57 57 58 57 57 56
81 82 83 84 84 84 85 86 87 87 87 87 86 86 85 82 79 77 75 73 71 70 68 67 69 71 72 73 72 70 67 64 64 63 63 63 64 64 65 66 68 70 69 67 65 63 60 57 53 51 50 51 51 50 51 53 54 55 55 53 51 50 50 52 54 55 55 54 53 52 52 52 52 53 53 55 57 58 58 53 49 50 52 54 56 57 57 57
81 82 82 82 82 82 83 84 84 85 85 86 86 86 86 85 82 79 77 74 73 72 69 68 70 72 73 74 74 72 68 64 64 64 64 64 63 63 63 63 64 66 67 68 67 65 62 57 53 54 55 55 54 53 53 53 52 53 54 54 52 50 50 51 53 54 55 55 55 53 52 50 50 49 48 49 53 56 58 57 54 50 46 47 52 54 54 55
78 78 78 78 79 78 78 79 80 80 81 82 83 83 85 86 82 79 78 76 75 74 71 70 70 73 75 76 76 73 69 65 65 66 65 64 63 61 61 61 61 62 65 67 67 65 62 58 57 58 58 57 55 53 53 52 52 52 53 53 53 53 52 51 52 53 55 56 56 54 51 49 48 45 43 45 50 54 56 56 55 54 49 45 46 48 49 51
75 74 73 73 73 73 73 74 75 75 75 77 78 81 84 83 79 78 78 77 76 75 72 71 71 75 78 79 77 74 70 67 67 67 66 64 62 60 60 59 59 61 62 64 65 65 63 61 61 62 61 59 56 55 53 52 51 51 51 52 54 56 54 53 52 52 54 55 56 54 49 47 44 41 40 42 46 48 52 53 52 53 52 49 50 50 50 50
69 68 67 66 65 66 67 69 70 70 70 72 74 77 77 75 75 77 77 76 77 75 73 72 73 77 80 80 77 73 71 69 67 67 67 64 63 61 59 59 59 59 60 60 62 64 64 64 66 66 64 61 59 57 55 53 52 51 51 52 55 57 56 54 52 51 52 54 55 52 47 45 42 40 39 40 42 45 48 51 51 51 50 50 52 54 56 56
62 61 60 60 59 59 60 62 63 64 65 66 70 71 69 69 73 75 75 75 76 75 74 73 75 79 82 80 76 72 71 69 66 67 66 64 63 62 60 59 59 58 58 58 60 62 63 65 68 68 66 64 61 59 57 55 53 52 52 53 55 57 57 55 53 50 51 52 53 50 46 44 42 41 41 40 41 43 47 51 51 51 52 53 50 48 54 61
57 56 55 54 54 54 55 57 57 58 60 61 63 63 63 68 71 71 72 73 74 75 75 75 77 82 82 77 75 74 71 69 67 67 66 64 63 62 61 60 58 57 57 57 58 60 62 65 68 69 68 66 63 61 59 56 55 53 53 55 56 55 56 56 54 51 50 51 50 47 45 43 42 42 41 42 41 41 45 48 47 47 50 55 53 45 49 58
52 51 50 49 49 50 52 53 53 54 55 55 55 55 61 68 69 70 71 71 74 76 76 77 80 83 80 77 77 74 71 71 70 68 66 65 64 62 60 58 57 57 57 56 55 56 59 64 67 69 68 67 64 62 60 58 56 55 56 57 55 54 55 56 55 52 51 50 47 45 43 42 42 43 42 42 42 41 43 45 45 47 50 54 54 49 50 58
48 47 46 45 46 46 48 50 50 50 50 51 51 52 60 67 68 69 70 70 74 77 76 79 82 82 79 78 77 73 72 74 71 68 67 66 64 63 60 57 57 57 56 55 53 54 57 61 65 67 67 66 64 64 64 62 60 60 61 59 56 55 55 55 54 53 52 49 45 43 42 42 43 44 43 42 42 42 43 44 47 50 54 57 57 57 58 63
45 44 43 43 44 44 45 47 47 46 47 49 48 51 60 66 67 69 69 70 74 76 76 79 81 80 78 77 75 74 75 75 72 70 70 68 65 63 60 58 58 58 56 54 53 55 58 60 63 65 65 65 66 68 67 65 64 65 64 60 57 55 53 52 52 53 53 48 43 42 41 41 43 44 43 43 43 44 45 48 51 52 54 57 60 64 65 61
41 39 39 40 40 41 41 43 43 43 45 46 47 52 60 65 66 68 68 69 72 74 75 77 79 79 77 76 75 75 75 73 71 71 70 68 66 64 62 60 60 59 56 54 53 55 59 61 63 62 62 65 69 71 70 68 69 68 65 61 59 56 52 50 49 51 51 46 43 42 41 40 42 43 43 44 46 49 50 51 53 54 54 57 62 69 71 66
37 34 33 35 35 35 36 37 39 40 42 43 47 53 60 63 65 67 68 69 71 72 73 76 78 77 76 75 75 75 74 72 71 70 68 67 65 64 62 61 59 58 56 53 52 54 57 60 61 61 61 64 68 70 71 72 71 68 65 62 59 55 51 48 46 47 46 44 45 44 42 41 42 43 45 47 50 52 53 52 53 55 58 61 65 68 69 69
31 29 28 28 29 29 31 33 34 37 39 42 47 53 59 62 64 67 67 68 69 70 72 74 76 75 75 76 76 76 74 72 70 69 67 64 62 61 60 58 56 55 52 50 50 52 55 56 58 59 60 62 64 67 70 72 70 67 65 62 58 54 50 45 43 42 42 45 49 47 43 41 42 45 47 50 53 54 53 53 54 55 57 61 63 63 61 60
27 25 24 23 23 25 27 28 31 34 37 42 48 54 58 62 65 66 67 66 67 68 70 72 74 74 75 75 76 75 74 72 71 69 67 64 62 61 59 57 55 54 51 49 49 50 52 53 55 57 59 60 60 62 65 66 66 65 64 62 59 54 49 44 41 40 41 47 51 48 43 41 42 45 48 50 53 55 54 54 55 54 54 55 55 54 53 52
24 21 20 19 19 21 23 25 28 32 37 42 48 54 58 61 64 64 65 65 65 66 68 70 72 73 74 75 75 73 71 70 69 68 67 65 62 61 58 56 55 54 52 51 51 50 50 50 51 53 55 56 57 58 60 62 63 64 64 64 61 56 52 48 44 42 43 48 50 47 42 40 41 44 47 50 52 53 53 53 53 52 51 51 51 50 50 49
20 17 16 15 16 18 20 23 27 32 37 43 49 55 59 61 62 63 64 63 63 64 67 69 71 72 73 74 74 72 70 68 67 66 65 63 61 59 57 55 54 53 52 51 50 50 49 49 50 53 55 55 56 57 59 61 63 64 66 65 61 57 55 52 49 46 46 48 49 45 41 39 42 45 47 49 50 50 50 51 50 49 48 48 49 49 48 46
17 14 12 12 15 18 21 24 28 33 39 45 51 55 58 60 62 62 62 61 61 64 67 69 70 71 73 73 71 70 69 68 66 64 62 61 60 59 58 56 55 53 52 50 49 49 48 49 52 54 56 57 57 58 58 59 61 63 63 61 60 60 58 55 52 49 48 48 47 44 41 40 42 44 45 46 47 47 47 47 47 47 47 47 46 45 46 45
14 11 10 12 15 18 21 26 30 35 41 47 51 54 57 59 60 60 60 60 62 64 66 67 68 70 71 71 69 67 66 65 64 63 61 59 59 58 57 56 55 54 53 52 51 50 49 49 52 55 57 59 60 60 60 60 60 60 59 59 62 63 60 56 54 51 48 47 46 43 41 41 41 41 42 43 45 46 46 45 44 45 47 46 41 39 42 44
11 8 8 11 14 17 21 26 31 37 42 47 50 53 55 57 58 58 59 60 61 63 64 65 66 67 68 68 67 66 65 63 61 60 59 58 57 56 55 55 55 55 55 54 53 52 51 51 52 55 58 62 63 63 63 61 59 58 59 61 63 61 57 55 53 51 48 47 45 43 41 40 39 39 41 42 43 45 45 45 45 46 47 47 43 41 42 41
8 5 6 9 13 17 22 27 32 38 43 47 50 53 55 56 56 57 58 59 60 61 61 63 64 65 66 66 65 64 63 61 59 57 56 55 55 55 54 53 53 53 53 53 53 52 52 53 53 55 59 63 64 64 62 59 58 59 60 60 60 58 56 55 53 51 49 47 45 44 41 39 39 40 42 42 43 44 45 45 46 46 46 46 46 46 44 40
5 2 4 8 13 18 22 27 32 37 42 47 50 52 53 54 55 55 56 57 58 59 61 62 64 64 64 64 63 62 61 60 58 56 54 54 54 54 54 54 53 53 53 53 53 52 53 54 54 56 58 60 60 59 59 58 58 58 57 57 57 56 56 56 54 52 50 48 46 44 41 40 41 43 44 44 43 43 44 44 43 42 42 42 42 43 43 41
3 1 3 8 12 16 21 26 31 36 41 45 48 49 51 51 52 53 54 56 57 59 60 61 62 63 63 62 61 59 58 58 57 56 55 54 54 53 53 53 54 54 54 53 51 51 52 54 55 56 57 56 54 57 60 62 61 59 57 57 56 56 55 55 53 51 49 48 47 46 43 43 44 45 46 46 45 44 43 42 41 39 39 38 40 40 39 40
5 4 2 5 10 15 20 25 31 36 40 43 45 47 49 50 51 52 53 55 56 57 58 60 60 61 61 60 59 58 56 56 56 55 55 55 54 53 53 54 54 54 54 53 53 53 53 54 54 54 55 55 56 60 63 64 64 63 62 61 60 58 56 54 52 51 50 49 48 47 46 46 46 46 46 46 45 44 43 41 40 39 38 38 39 39 39 41
7 7 5 6 11 17 22 26 31 36 41 43 46 47 48 48 49 51 52 53 54 55 56 57 58 58 58 57 57 57 55 54 54 55 56 56 56 56 56 55 55 55 54 54 54 54 54 54 53 53 53 55 58 62 65 66 67 66 64 62 60 58 56 55 55 56 55 52 50 49 48 47 47 46 46 45 44 43 42 41 40 39 39 39 39 39 40 42
9 8 8 10 14 19 24 28 33 38 42 44 45 46 47 47 48 49 50 50 51 53 54 55 56 56 55 54 54 55 54 54 53 54 55 56 57 58 57 57 57 55 54 54 53 53 54 54 54 54 54 56 58 62 66 67 66 65 63 60 59 58 58 59 59 59 57 53 51 50 50 49 48 47 46 45 44 43 42 42 41 41 40 40 40 41 41 42
9 10 10 12 15 20 25 29 33 38 42 44 45 45 46 46 47 47 47 48 49 50 51 52 53 54 54 53 52 52 52 53 53 54 55 57 57 57 57 57 57 55 55 56 55 55 55 55 54 54 55 56 56 59 62 63 63 62 62 60 59 59 59 59 59 58 55 53 52 51 50 49 47 47 46 46 45 44 43 43 42 42 42 42 42 42 42 42
9 10 11 13 17 21 26 31 35 39 43 44 44 45 44 44 44 44 44 45 46 47 48 50 51 51 52 52 51 51 51 52 54 55 56 56 55 54 54 54 54 54 55 55 54 54 54 55 55 55 56 56 56 57 60 62 64 64 62 61 60 59 58 58 57 56 55 54 53 52 51 50 49 48 47 47 46 45 45 44 44 43 43 43 43 43 43 42
9 11 12 15 18 23 27 32 37 40 43 44 44 43 42 42 41 41 41 42 43 45 46 47 48 48 49 50 50 51 52 54 55 56 56 54 52 51 51 51 51 52 53 53 52 52 52 53 54 55 57 58 58 59 62 64 65 65 64 63 61 59 58 57 55 54 54 54 53 53 53 53 52 51 50 49 49 48 47 46 45 45 44 44 44 43 43 42
9 10 12 14 17 22 27 33 38 41 43 43 42 41 40 39 39 39 40 41 43 44 45 46 46 47 48 48 49 50 52 54 55 53 51 50 49 50 50 50 51 51 51 51 51 51 51 53 54 56 57 58 59 61 62 63 64 65 64 64 62 61 58 56 55 55 54 54 54 54 53 53 54 53 52 51 50 49 49 47 46 45 45 44 44 44 44 43
13 12 12 14 16 21 26 32 36 39 41 41 40 39 38 38 38 39 40 41 42 43 44 45 45 46 47 48 49 50 52 52 50 48 47 46 47 47 48 48 49 49 49 49 49 50 52 54 55 55 57 58 59 61 63 63 64 65 65 64 63 62 60 58 57 56 55 54 54 53 52 53 54 53 52 51 50 48 48 47 46 45 45 45 44 45 45 45
17 15 15 15 17 21 26 31 35 37 38 38 37 37 37 37 37 38 39 40 40 41 42 43 43 44 45 46 48 49 49 48 46 44 44 45 45 45 45 45 46 46 47 48 49 50 52 54 55 55 55 57 59 61 63 63 64 65 65 64 63 62 61 59 58 57 55 54 53 53 52 52 53 53 53 51 50 49 48 48 48 47 47 47 46 46 46 46
22 19 18 19 22 26 30 35 37 37 37 35 34 35 35 35 35 35 36 37 37 38 39 40 41 41 43 44 44 45 44 44 43 43 44 44 44 43 43 44 45 46 47 48 49 50 52 53 53 53 54 56 59 61 63 63 64 65 65 65 64 62 61 59 57 55 54 54 53 53 53 53 53 54 54 53 52 51 51 50 50 50 50 49 48 48 47 47
25 22 22 24 27 30 33 36 37 36 35 34 32 32 33 33 34 34 34 35 36 37 38 39 39 39 40 41 41 42 42 42 41 42 42 42 41 41 42 43 44 45 46 47 49 50 51 51 51 52 53 55 57 60 63 63 63 64 65 64 63 61 59 58 57 55 54 54 54 54 55 55 55 55 55 55 55 54 54 54 53 53 52 51 50 49 48 47
Wind_Direction
281 279 278 277 276 275 275 274 273 271 268 265 262 260 259 257 254 251 249 247 246 245 244 243 243 243 244 244 244 244 243 243 243 242 242 242 242 243 243 242 242 241 240 239 238 237 236 236 236 236 236 236 236 235 235 235 235 236 236 236 237 237 238 238 239 240 241 241 242 243 244 245 246 248 249 251 252 253 252 252 251 251 253 256 259 261 262 263
280 279 277 276 275 274 273 273 272 271 269 267 263 260 258 257 255 252 250 248 246 245 244 243 242 242 243 244 244 244 243 243 242 242 242 243 244 244 243 242 242 242 241 240 239 238 237 235 235 235 236 235 235 235 235 234 234 234 235 235 236 237 237 238 239 240 240 240 240 242 243 244 245 247 248 249 250 251 250 250 250 251 252 254 257 258 259 260
278 277 276 275 274 273 272 272 271 270 269 267 265 262 259 256 255 253 251 249 246 245 244 243 242 241 241 242 243 243 242 242 241 241 242 243 243 243 242 241 241 241 241 241 240 239 237 236 235 235 235 235 235 235 234 234 233 232 233 234 235 236 237 238 239 239 239 239 239 241 242 243 244 246 247 248 249 250 250 250 250 250 251 252 253 254 255 256
278 276 274 274 273 272 271 270 270 269 268 267 265 263 261 257 255 253 252 250 248 245 243 242 242 241 241 240 241 241 241 241 240 242 243 242 241 241 241 241 241 241 240 241 241 240 239 237 235 235 234 234 235 235 234 234 232 231 232 233 234 235 236 237 238 239 238 238 239 240 241 242 243 244 246 246 247 248 249 250 250 250 250 250 250 250 252 254
279 276 274 273 272 271 270 270 269 268 268 267 265 263 262 259 256 253 252 250 248 246 244 242 241 241 240 240 239 240 240 239 239 241 242 240 239 239 239 240 241 241 240 240 240 240 239 238 236 235 234 234 234 234 234 233 232 231 231 233 234 235 236 237 238 238 238 238 238 239 240 241 242 243 244 245 246 246 247 249 250 250 250 249 249 249 251 253
280 278 275 273 271 270 269 269 268 267 266 266 265 263 261 260 257 254 252 250 249 247 245 243 241 240 239 239 238 238 239 238 238 240 240 239 238 238 239 238 239 240 240 239 239 239 239 238 237 236 234 233 233 233 233 232 232 231 232 233 234 235 235 236 237 237 237 237 237 238 239 240 240 241 242 243 244 244 245 247 248 248 248 248 249 249 250 252
280 278 275 274 271 270 269 268 267 267 265 264 263 262 261 259 258 255 253 250 249 247 245 243 241 239 238 238 237 237 237 237 237 238 239 238 237 238 238 237 237 238 238 238 238 238 238 238 237 237 235 233 232 233 232 232 232 232 233 234 234 235 235 236 237 237 237 237 237 237 237 238 239 240 241 242 243 243 244 245 246 247 247 248 248 249 251 252
279 277 274 273 271 270 268 267 266 265 264 263 262 261 260 258 257 256 254 251 249 247 246 244 242 240 238 237 237 236 236 236 235 236 238 238 237 236 237 237 236 236 236 237 237 237 237 237 237 237 236 234 233 233 232 231 232 233 234 234 234 235 235 236 237 237 237 237 237 237 237 237 238 238 240 241 242 242 243 244 244 245 246 247 248 250 251 251
277 275 273 271 270 268 267 266 265 264 263 262 261 260 258 257 256 255 254 252 249 247 246 244 242 241 239 237 236 235 235 235 234 235 237 238 236 235 236 237 236 235 235 236 236 236 236 236 236 236 235 235 234 233 232 232 233 234 234 235 235 236 236 237 238 238 237 237 236 236 237 236 237 237 238 239 240 240 241 242 243 244 245 247 248 250 249 249
274 273 272 270 268 267 265 264 263 262 261 261 260 258 257 256 255 254 253 252 250 247 246 245 243 241 239 238 236 235 236 235 233 233 235 236 235 234 234 235 235 235 234 234 234 234 234 234 235 235 236 235 235 234 232 232 234 234 235 235 235 236 236 237 238 237 237 236 236 236 236 236 236 236 237 238 238 238 239 241 242 243 245 246 247 248 248 249
273 272 270 269 267 265 263 262 261 260 259 259 258 257 256 255 254 253 252 251 250 248 246 244 243 242 239 238 236 235 236 235 232 231 233 235 235 233 233 234 234 234 234 233 233 233 234 234 234 235 235 235 235 234 232 232 233 234 235 235 234 234 235 236 236 236 236 236 236 236 236 235 236 236 237 237 237 238 239 240 241 243 244 245 246 247 248 249
273 271 269 268 266 265 263 260 259 258 257 257 256 256 255 254 253 252 251 251 249 248 246 244 243 242 240 238 236 236 236 235 233 231 232 233 233 232 231 232 233 233 233 233 232 232 232 233 233 233 233 233 234 233 233 233 233 234 234 234 234 234 235 236 236 235 235 235 235 235 235 235 235 236 236 237 237 238 239 239 240 241 242 243 244 245 246 248
273 270 269 267 266 264 262 260 258 256 255 254 254 254 253 253 252 251 250 250 249 248 246 244 242 241 240 238 237 236 235 235 233 231 232 233 232 231 230 230 231 232 233 233 232 232 232 232 232 232 232 232 232 232 232 232 232 233 233 234 234 233 235 237 237 235 234 234 234 234 233 233 234 234 235 235 236 236 238 239 240 240 241 242 243 244 245 246
273 270 268 266 265 263 261 259 257 256 254 252 252 252 252 251 250 250 249 248 248 247 246 244 242 240 238 238 238 236 235 235 233 231 231 231 231 230 229 229 230 230 231 232 233 232 232 231 231 232 231 231 231 230 230 232 232 232 233 234 233 233 235 237 237 235 234 233 232 232 232 232 231 232 232 233 234 235 236 238 239 240 241 241 242 243 244 245
273 270 267 265 264 262 260 258 256 255 253 252 250 250 250 250 249 249 248 248 247 246 245 243 241 239 237 237 239 236 234 235 234 231 231 231 231 230 228 228 228 229 230 231 232 233 232 231 231 232 231 231 230 229 230 231 232 232 232 233 233 233 234 236 237 235 233 232 231 231 231 230 230 230 230 231 232 234 236 238 239 240 241 241 242 243 245 245
273 270 267 265 263 261 259 257 256 254 252 251 249 248 248 248 248 247 247 247 246 245 244 242 240 238 236 237 238 236 234 234 234 231 231 232 231 230 229 228 228 228 229 230 231 232 232 231 230 230 231 232 231 230 230 230 231 231 232 232 232 232 233 235 237 236 234 231 230 230 229 229 229 228 229 231 233 235 236 237 239 240 241 242 244 244 245 245
274 270 267 265 262 261 258 256 255 253 251 250 249 248 247 247 247 246 246 246 246 244 243 241 239 237 235 236 237 236 234 234 234 232 231 232 232 230 229 229 229 229 229 230 230 231 232 232 231 230 230 231 231 231 231 231 232 231 231 231 230 230 231 232 234 236 234 231 230 229 229 229 228 228 229 230 234 236 236 237 238 240 242 243 244 245 245 245
274 271 268 265 262 260 258 256 254 252 251 249 248 247 246 245 245 245 245 245 245 243 242 240 238 235 234 235 235 235 233 233 234 232 231 232 232 231 230 229 229 229 229 229 230 231 231 232 232 230 230 230 230 231 232 231 230 228 228 227 227 228 228 228 231 234 234 232 230 230 230 230 230 230 230 230 232 234 236 238 241 243 244 245 246 246 246 246
274 271 269 266 263 261 259 257 255 253 251 249 248 246 246 244 244 244 244 243 243 242 240 238 236 234 233 233 234 233 232 232 233 231 231 231 231 231 230 230 229 229 229 228 229 229 230 231 232 232 231 230 229 228 228 228 227 226 226 226 227 227 227 227 229 232 234 233 231 230 231 232 232 232 231 230 230 233 235 237 243 248 248 248 249 248 247 247
275 273 271 268 266 263 261 259 257 255 253 250 248 246 245 244 243 242 242 242 242 241 239 236 234 233 232 233 233 233 232 231 232 232 231 231 231 230 230 230 230 229 229 228 228 228 228 228 229 231 230 228 226 224 225 226 226 226 227 227 228 228 228 228 229 231 233 234 232 231 232 233 234 234 233 232 232 233 234 233 235 245 252 251 251 251 250 250
276 274 272 270 268 265 262 260 258 255 253 251 249 247 246 244 242 241 241 241 240 239 237 234 232 231 231 232 232 232 231 231 232 232 231 231 232 231 230 230 230 230 229 227 227 226 226 226 227 228 228 227 225 224 225 226 226 227 227 227 228 229 229 229 229 230 232 233 233 232 231 232 234 235 235 235 234 234 234 232 230 236 249 256 254 253 253 252
277 275 273 270 268 266 263 260 258 255 253 250 249 247 245 244 242 240 239 239 238 237 235 232 230 229 229 230 230 229 229 228 229 231 230 230 231 231 230 229 229 229 228 227 226 225 225 225 226 227 227 227 226 226 227 227 226 226 227 227 227 228 228 228 228 229 231 233 234 233 231 230 232 233 234 234 235 235 235 234 231 231 239 253 257 256 255 256
279 276 274 271 268 266 263 260 257 255 251 249 247 244 242 242 241 239 238 237 236 235 232 229 227 227 227 228 228 227 227 226 227 229 229 229 230 230 229 228 228 228 228 226 225 224 223 222 224 226 226 226 225 226 227 228 227 227 227 227 227 227 227 227 228 228 230 232 234 235 233 231 232 232 233 233 235 236 236 236 235 232 235 246 256 259 259 259
280 277 274 271 268 264 261 258 256 253 250 246 244 241 240 239 238 237 235 234 234 232 229 226 224 225 226 226 227 226 225 226 226 229 229 228 228 229 229 227 226 227 227 226 224 222 221 221 223 224 224 224 224 225 225 226 227 227 226 226 226 226 226 226 227 227 229 231 233 235 234 233 232 231 231 231 233 234 236 236 234 232 231 238 252 262 261 258
281 278 274 271 267 263 260 257 254 251 249 245 241 239 237 235 234 233 232 231 230 229 226 223 222 223 224 225 225 225 225 225 226 229 230 228 228 229 228 227 225 225 226 225 224 221 220 221 222 223 223 223 222 223 225 225 226 226 226 226 226 226 225 225 226 227 228 230 232 233 233 232 231 230 229 229 230 231 232 233 232 229 228 229 238 254 261 258
281 278 274 269 265 261 258 255 252 249 247 244 240 236 232 231 230 229 228 227 227 226 223 220 220 221 222 222 223 223 223 224 224 227 228 228 228 228 228 227 225 224 225 224 223 221 220 221 222 223 223 223 222 222 224 224 225 226 227 228 227 226 225 224 224 225 227 229 231 232 232 231 231 231 230 229 229 229 230 232 231 228 227 227 228 240 257 260
282 278 273 269 264 259 256 254 252 248 245 242 239 233 228 227 226 225 225 223 222 222 220 218 218 220 219 219 221 221 221 222 223 224 226 227 226 226 228 227 225 224 224 223 222 222 221 221 222 222 222 222 222 223 224 224 224 225 227 228 228 227 226 224 223 224 226 228 230 230 230 230 231 231 230 230 229 229 229 229 229 227 226 227 225 229 248 258
284 280 275 270 265 261 257 254 251 247 243 239 235 228 223 223 222 222 221 219 219 219 217 216 217 217 217 217 219 219 219 220 221 221 224 225 224 224 225 226 225 224 223 222 221 220 221 222 223 222 222 221 221 223 224 223 223 224 226 226 226 227 226 225 223 223 225 228 229 230 230 229 229 230 230 230 229 229 229 226 226 227 228 228 226 227 237 250
286 281 276 271 266 262 257 254 250 245 240 235 229 222 220 219 219 219 218 217 217 217 215 215 216 216 215 216 218 218 219 220 220 220 222 223 223 223 223 223 223 222 222 221 219 219 219 220 222 222 220 220 219 221 222 222 223 224 225 225 225 226 226 226 224 224 226 228 229 230 230 229 229 229 229 229 229 228 227 225 223 224 226 227 228 228 230 238
287 281 274 269 264 259 255 252 247 241 236 230 223 218 217 216 215 215 215 215 215 215 215 214 215 214 213 215 216 218 219 219 220 221 222 223 222 221 221 221 221 220 219 219 219 221 220 220 221 221 220 220 220 220 220 221 223 224 224 225 225 225 225 225 225 225 225 226 228 229 229 228 228 228 228 228 227 226 225 225 223 221 223 225 228 230 231 234
288 280 272 266 261 255 249 245 240 234 229 223 217 215 214 213 212 213 213 213 213 213 213 213 213 212 212 213 215 217 218 218 219 221 223 224 224 223 223 222 222 221 219 218 219 222 223 222 222 221 221 222 222 222 222 222 223 224 225 226 226 226 226 225 226 226 225 224 226 227 227 226 226 226 226 225 226 227 226 226 226 224 223 225 228 230 232 234
290 283 273 265 258 250 243 237 232 227 221 215 211 211 211 209 209 210 211 211 211 211 211 211 211 211 211 212 214 215 216 217 218 220 222 223 224 224 225 225 224 222 220 220 221 223 224 224 223 222 222 223 224 224 225 225 226 226 226 227 228 228 228 227 228 228 224 223 226 226 225 225 224 224 224 224 225 227 227 227 228 228 228 230 232 234 236 239
294 286 276 265 255 245 237 230 224 218 214 209 207 207 207 206 206 208 209 209 209 209 210 210 210 209 210 212 214 215 215 215 216 217 219 220 221 221 222 222 222 221 218 218 221 225 225 225 224 224 224 224 225 226 227 228 228 228 229 229 228 228 227 227 227 227 223 223 225 224 223 224 224 224 225 225 226 227 228 228 229 231 232 235 238 241 243 245
298 289 277 263 250 239 230 222 216 210 206 203 202 203 204 204 205 206 206 206 206 207 208 208 208 209 210 212 214 215 216 216 216 217 218 218 219 220 220 220 220 219 217 216 217 221 224 225 225 226 226 227 226 226 227 227 226 226 227 227 227 226 225 224 223 223 221 222 223 222 221 223 224 224 225 225 226 228 229 230 232 233 235 237 240 242 243 244
301 289 274 257 241 228 218 211 207 203 201 199 199 200 201 201 202 203 204 204 204 204 206 207 207 208 210 212 213 214 214 215 217 218 219 219 218 218 219 219 219 218 218 218 218 219 220 221 223 224 226 227 226 226 226 226 226 225 225 225 225 225 224 222 221 220 220 221 221 218 218 221 221 222 223 224 226 228 229 231 232 234 235 237 239 241 242 244
304 286 265 244 227 215 206 200 198 197 196 196 196 197 198 199 199 201 202 202 202 203 204 205 206 206 208 211 213 214 214 215 215 216 218 218 218 217 217 217 217 217 216 217 219 221 221 219 219 221 223 224 225 225 225 226 226 226 226 226 225 224 223 221 221 220 220 221 219 215 216 219 220 220 221 223 224 226 228 229 232 233 234 235 238 243 245 244
305 282 255 233 218 208 200 195 192 193 193 194 195 195 195 197 198 198 199 199 200 202 203 204 205 206 208 209 210 212 214 216 216 216 215 216 217 218 218 217 215 215 215 215 216 218 220 221 220 220 222 223 224 224 223 223 224 224 225 225 225 223 221 221 221 221 221 221 218 213 214 217 218 219 221 222 224 225 225 226 229 231 233 232 233 241 245 242
305 277 249 226 209 200 197 193 190 190 191 192 192 192 193 195 196 196 197 197 199 200 202 202 204 206 208 209 209 210 212 214 216 217 216 215 215 217 218 218 217 216 216 215 215 215 216 219 220 221 222 223 223 224 224 223 223 222 222 223 224 223 221 222 222 222 222 222 217 213 213 215 216 217 218 220 221 223 223 224 225 227 229 229 225 228 237 239
306 272 239 218 201 193 191 191 190 190 190 189 189 189 191 193 194 195 195 196 198 199 200 201 203 205 207 208 209 210 210 211 213 215 215 215 216 216 216 216 217 218 218 218 217 216 216 217 219 221 222 223 223 223 224 224 224 224 223 224 225 222 220 220 220 220 221 220 217 213 212 214 214 215 216 217 219 222 223 224 225 227 229 230 227 227 233 238
318 272 215 203 196 192 190 189 190 190 188 187 187 188 189 190 191 193 194 195 197 198 199 200 202 203 205 207 209 210 210 209 209 210 212 213 215 216 215 215 215 217 218 219 219 218 218 218 219 221 223 224 224 224 225 225 226 225 224 226 227 224 222 221 220 219 219 218 216 213 212 213 214 215 216 216 217 220 223 225 227 229 231 232 232 231 234 238
5 37 194 195 194 191 188 187 187 187 187 187 186 186 187 188 189 191 193 194 196 197 198 200 201 202 204 205 207 209 210 210 208 207 208 210 212 213 214 215 215 216 217 218 219 220 221 221 221 222 224 224 223 224 225 224 224 224 223 223 224 224 223 222 221 221 221 220 217 214 213 214 215 217 218 217 216 218 221 224 226 228 230 232 233 233 235 239
70 74 136 188 188 184 184 185 184 184 185 184 183 183 185 186 187 189 192 193 195 197 198 199 200 202 203 203 204 206 208 210 209 207 207 208 209 210 212 213 215 216 217 217 218 219 221 222 223 224 225 224 221 222 223 223 222 222 221 221 220 219 219 219 218 219 220 220 219 216 215 216 217 218 220 220 219 219 220 223 225 227 229 231 234 234 235 239
95 96 124 167 178 177 177 181 181 180 181 181 180 182 183 184 186 188 191 193 194 196 197 199 200 201 203 203 203 203 205 207 208 208 207 207 208 209 210 211 213 215 216 218 219 220 221 222 222 223 225 225 224 222 222 222 221 221 221 221 221 219 218 216 215 216 216 216 216 216 216 218 218 219 221 222 222 221 221 223 225 227 229 231 234 236 235 237
110 115 135 159 172 173 173 177 178 178 178 178 179 180 181 183 185 187 189 191 193 194 196 198 199 200 202 203 204 204 203 204 206 207 208 208 209 209 209 211 212 214 215 217 219 221 222 223 222 222 223 224 225 224 224 222 222 222 222 222 222 220 219 217 215 215 215 213 214 215 217 219 220 220 221 223 223 222 222 223 225 227 229 231 233 236 237 239
119 126 140 155 166 171 172 175 176 175 174 176 177 179 180 182 184 185 187 189 191 193 195 197 198 199 200 201 203 204 204 203 204 206 208 210 211 211 211 212 214 215 216 218 218 220 222 222 222 222 223 224 225 226 227 226 224 223 223 223 222 221 220 220 218 216 215 214 214 215 217 220 222 222 223 224 225 225 225 225 226 227 229 231 232 235 237 240
116 125 137 150 161 167 169 171 173 172 172 174 176 178 179 180 182 183 185 187 189 192 194 196 197 198 199 200 200 201 203 204 205 207 209 210 212 213 214 215 217 218 220 222 222 223 223 223 222 221 222 222 222 224 225 225 224 223 223 223 223 223 222 221 220 219 217 216 215 215 217 219 222 224 225 225 225 226 227 227 227 228 229 231 233 235 238 240
109 122 136 150 159 164 167 169 170 170 171 173 175 176 177 178 179 180 181 184 186 190 193 195 196 197 198 199 199 199 201 204 206 208 209 210 211 213 215 217 219 221 223 224 225 226 227 226 225 223 222 222 221 221 222 222 222 222 221 222 223 223 223 222 221 221 220 218 217 217 217 219 221 223 225 225 226 226 227 228 228 229 230 231 233 236 238 240
94 112 130 145 155 160 164 166 168 169 170 171 173 173 174 175 176 176 179 182 184 187 189 192 193 195 196 197 198 199 202 206 208 210 211 212 213 214 216 219 221 223 225 226 227 227 228 227 226 225 224 223 221 221 221 221 221 221 220 220 221 222 222 221 221 221 220 220 219 219 219 220 223 224 225 226 227 228 229 229 230 231 232 233 235 236 238 239
79 92 113 133 147 154 160 164 166 166 167 168 169 170 171 171 172 175 178 180 182 184 186 188 190 192 194 195 197 200 204 208 210 211 213 214 215 217 218 221 223 225 226 227 228 227 228 227 226 224 224 223 222 221 220 220 220 221 221 220 220 220 220 220 220 221 220 220 220 220 220 222 224 226 227 228 229 231 232 233 233 234 235 235 236 236 237 238
78 86 103 121 134 144 152 157 159 161 163 165 166 167 169 170 171 175 177 179 180 182 184 187 189 191 194 196 199 203 206 208 210 212 214 217 218 220 221 223 226 227 227 228 227 226 227 227 225 223 222 222 222 221 220 219 219 219 220 220 220 220 220 220 219 220 220 220 221 221 222 223 226 228 229 230 231 232 233 235 235 236 236 237 237 238 238 239
83 90 102 116 129 139 147 152 155 158 161 163 165 165 166 168 170 174 176 177 179 182 184 187 190 192 195 198 202 206 208 210 212 214 216 218 220 221 223 225 226 226 226 226 225 225 225 225 224 222 220 220 220 220 220 219 218 218 218 219 220 220 220 220 220 220 220 221 221 222 222 224 226 228 230 231 232 233 234 235 236 237 237 237 238 238 239 240
89 96 109 122 133 141 147 151 154 157 158 159 161 163 163 166 168 172 175 177 179 182 184 187 190 194 198 201 204 208 211 213 215 217 219 220 221 222 224 225 225 225 224 223 223 223 222 222 221 220 218 218 218 219 219 219 218 218 218 219 220 220 220 220 220 221 221 221 221 222 223 223 225 227 229 231 232 234 235 235 236 237 237 238 238 239 241 242